Starlink 11139

operational
NORAD ID: 60402 Int'l Des: 2024-141 Owner: SPXS Country: US Constellation: starlink
LEOCIRCULAR

Über Starlink 11139

Beschreibung wird geladen...

Live-Position

3D-Globus wird geladen...

Nächste Überflüge

Höhenverlauf

Altitude vs Time

uPlot chart will show altitude changes over time

Zweizeiliger Elementsatz

1 60402U 24141E 25259.08499824 .00000186 00000-0 64001-5 0 9992
2 60402 53.1611 226.6766 0001476 90.6453 269.4734 15.69720413 64329
Epoch: 16. Sept. 2025 • Age: 14 hours

Aktueller Status

Höhe 364.2 km
Geschwindigkeit 7.70 km/s
Subsatellitenpunkt 48.43°N, 106.81°E
Startdatum 10. Aug. 2024
Alter 1.1 years
Typ internet

Technische Details

Klassifizierung Payload
Masse 960.00 kg
Trockenmasse 910.00 kg
Gesamtmasse 960.00 kg
Länge 0.30 m
Durchmesser 4.10 m
Spannweite 29.00 m
Form Box + pan
Hersteller SPXS
Bus-Typ Starlink V2MD
Phasenstatus In Orbit
Besitzer/Staat SPXS/US

Große Konstellationen

Loading constellations...